TAM6386 SBNF-SBGR

Flight info

Callsign TAM6386
Flight time 0h 49m
Altitude 29000
Route ENSUG DCT UMDOR UZ69 XONUG UZ121 BUXUK
Aircraft A20N/M-SDE2E3FGHIRWXY/LB1

Departure

Time 2026-04-25 22:59
Airport Ministro Victor Konder International Airport (SBNF)

Arrival

Time 2026-04-25 23:49
Airport São Paulo/Guarulhos–Governor André Franco Montoro International Airport (SBGR)
Time Latitude Longitude Altitude Speed Heading
2026-04-25 22:30 -26.87961 -48.64844 29 ft 0 kts 146°
2026-04-25 22:47 -26.87960 -48.64845 29 ft 1 kts 146°
2026-04-25 22:47 -26.87954 -48.64850 29 ft 2 kts 145°
2026-04-25 22:47 -26.87941 -48.64858 29 ft 3 kts 160°
2026-04-25 22:47 -26.87926 -48.64863 29 ft 2 kts 184°
2026-04-25 22:48 -26.87915 -48.64860 29 ft 2 kts 233°
2026-04-25 22:48 -26.87913 -48.64856 29 ft 0 kts 233°
2026-04-25 22:54 -26.87920 -48.64867 29 ft 5 kts 233°
2026-04-25 22:55 -26.87953 -48.64919 29 ft 11 kts 235°
2026-04-25 22:55 -26.87966 -48.64939 29 ft 1 kts 236°
2026-04-25 22:55 -26.87961 -48.64970 29 ft 7 kts 315°
2026-04-25 22:55 -26.87907 -48.65015 30 ft 10 kts 311°
2026-04-25 22:56 -26.87931 -48.65079 29 ft 12 kts 234°
2026-04-25 22:56 -26.87994 -48.65179 28 ft 18 kts 238°
2026-04-25 22:56 -26.88084 -48.65244 29 ft 0 kts 196°
2026-04-25 22:56 -26.88132 -48.65304 29 ft 15 kts 273°
2026-04-25 22:57 -26.88140 -48.65420 29 ft 19 kts 234°
2026-04-25 22:57 -26.88223 -48.65556 30 ft 23 kts 235°
2026-04-25 22:57 -26.88304 -48.65689 30 ft 18 kts 236°
2026-04-25 22:57 -26.88337 -48.65755 9 ft 3 kts 257°
2026-04-25 22:58 -26.88354 -48.65796 26 ft 3 kts 211°
2026-04-25 22:58 -26.88362 -48.65788 31 ft 1 kts 129°
2026-04-25 22:58 -26.88350 -48.65766 38 ft 8 kts 55°
2026-04-25 22:58 -26.88344 -48.65756 29 ft 0 kts 55°
2026-04-25 22:59 -26.88281 -48.65652 30 ft 62 kts 57°
2026-04-25 22:59 -26.87844 -48.64934 30 ft 158 kts 56°
2026-04-25 22:59 -26.87171 -48.63854 836 ft 169 kts 55°
2026-04-25 22:59 -26.86287 -48.63054 2047 ft 165 kts 19°
2026-04-25 23:00 -26.85100 -48.63064 2889 ft 185 kts 341°
2026-04-25 23:00 -26.83950 -48.63916 3622 ft 214 kts 319°
2026-04-25 23:00 -26.82745 -48.65035 4583 ft 237 kts 324°
2026-04-25 23:00 -26.81208 -48.65910 5577 ft 260 kts 338°
2026-04-25 23:01 -26.79426 -48.66393 6872 ft 261 kts 348°
2026-04-25 23:01 -26.77651 -48.66616 8439 ft 256 kts 352°
2026-04-25 23:01 -26.75843 -48.66757 9661 ft 265 kts 354°
2026-04-25 23:01 -26.73978 -48.66873 10781 ft 271 kts 354°
2026-04-25 23:02 -26.72059 -48.66991 11763 ft 286 kts 354°
2026-04-25 23:02 -26.69984 -48.67132 12390 ft 312 kts 353°
2026-04-25 23:02 -26.67733 -48.67292 12928 ft 337 kts 353°
2026-04-25 23:02 -26.65309 -48.67467 13439 ft 359 kts 353°
2026-04-25 23:03 -26.62795 -48.67679 14315 ft 363 kts 350°
2026-04-25 23:03 -26.60295 -48.68054 15341 ft 363 kts 349°
2026-04-25 23:03 -26.57781 -48.68430 16319 ft 366 kts 349°
2026-04-25 23:03 -26.55245 -48.68808 17261 ft 369 kts 349°
2026-04-25 23:04 -26.52686 -48.69189 18172 ft 373 kts 348°
2026-04-25 23:04 -26.50975 -48.69444 18675 ft 376 kts 348°
2026-04-25 23:04 -26.47470 -48.69967 19579 ft 384 kts 348°
2026-04-25 23:04 -26.44807 -48.70365 20257 ft 389 kts 347°
2026-04-25 23:05 -26.42089 -48.70675 20930 ft 397 kts 352°
2026-04-25 23:05 -26.39293 -48.70624 21579 ft 408 kts 359°
2026-04-25 23:05 -26.36448 -48.70169 22212 ft 418 kts
2026-04-25 23:05 -26.33574 -48.69535 22810 ft 424 kts
2026-04-25 23:06 -26.30667 -48.68903 23425 ft 429 kts
2026-04-25 23:06 -26.27712 -48.68266 23945 ft 434 kts
2026-04-25 23:06 -26.24736 -48.67628 24494 ft 437 kts
2026-04-25 23:06 -26.21737 -48.66987 25011 ft 441 kts
2026-04-25 23:07 -26.18741 -48.66067 25521 ft 450 kts 11°
2026-04-25 23:07 -26.15726 -48.65122 26036 ft 452 kts
2026-04-25 23:07 -26.12675 -48.64214 26500 ft 455 kts
2026-04-25 23:07 -26.09584 -48.63396 26975 ft 457 kts
2026-04-25 23:08 -26.06471 -48.62673 27462 ft 460 kts
2026-04-25 23:08 -26.03310 -48.62001 27929 ft 463 kts
2026-04-25 23:08 -26.00132 -48.61356 28311 ft 468 kts
2026-04-25 23:08 -25.96888 -48.60711 28443 ft 479 kts
2026-04-25 23:09 -25.93576 -48.60054 28548 ft 488 kts
2026-04-25 23:09 -25.90202 -48.59383 28650 ft 497 kts
2026-04-25 23:09 -25.86780 -48.58699 28845 ft 502 kts
2026-04-25 23:09 -25.83346 -48.58007 28920 ft 500 kts
2026-04-25 23:10 -25.76500 -48.56633 28936 ft 500 kts
2026-04-25 23:10 -25.69657 -48.55265 28937 ft 500 kts
2026-04-25 23:11 -25.62813 -48.53898 28936 ft 499 kts
2026-04-25 23:11 -25.56021 -48.52544 28935 ft 499 kts
2026-04-25 23:12 -25.49138 -48.51173 28929 ft 499 kts
2026-04-25 23:12 -25.42349 -48.49823 28937 ft 499 kts
2026-04-25 23:13 -25.35520 -48.48466 28943 ft 499 kts
2026-04-25 23:13 -25.28687 -48.47109 28945 ft 499 kts
2026-04-25 23:14 -25.21866 -48.45756 28947 ft 498 kts
2026-04-25 23:14 -25.15044 -48.44404 28952 ft 498 kts
2026-04-25 23:15 -25.08300 -48.42453 28955 ft 505 kts 13°
2026-04-25 23:15 -25.01640 -48.40019 28952 ft 504 kts 13°
2026-04-25 23:16 -24.94984 -48.37602 28950 ft 504 kts 13°
2026-04-25 23:16 -24.88328 -48.35192 28945 ft 504 kts 13°
2026-04-25 23:17 -24.81666 -48.32784 28948 ft 503 kts 13°
2026-04-25 23:17 -24.75015 -48.30381 28942 ft 503 kts 13°
2026-04-25 23:18 -24.68361 -48.27981 28938 ft 503 kts 13°
2026-04-25 23:18 -24.61709 -48.25584 28936 ft 503 kts 13°
2026-04-25 23:19 -24.55064 -48.23192 28937 ft 502 kts 13°
2026-04-25 23:19 -24.48424 -48.20805 28935 ft 502 kts 13°
2026-04-25 23:20 -24.41784 -48.18420 28945 ft 502 kts 13°
2026-04-25 23:20 -24.35166 -48.15944 28944 ft 505 kts 18°
2026-04-25 23:21 -24.28875 -48.12431 28946 ft 509 kts 24°
2026-04-25 23:21 -24.22648 -48.08745 28950 ft 508 kts 24°
2026-04-25 23:22 -24.16445 -48.05088 28938 ft 506 kts 24°
2026-04-25 23:23 -24.08179 -48.00227 28951 ft 507 kts 24°
2026-04-25 23:23 -24.01961 -47.96574 29009 ft 507 kts 24°
2026-04-25 23:24 -23.95718 -47.92905 28960 ft 510 kts 23°
2026-04-25 23:24 -23.89449 -47.89231 28975 ft 512 kts 23°
2026-04-25 23:25 -23.83171 -47.85556 28990 ft 512 kts 23°
2026-04-25 23:25 -23.76985 -47.81679 28988 ft 517 kts 30°
2026-04-25 23:25 -23.74152 -47.79245 28821 ft 520 kts 37°
2026-04-25 23:26 -23.71530 -47.76508 28646 ft 522 kts 40°
2026-04-25 23:26 -23.66309 -47.70979 28595 ft 520 kts 40°
2026-04-25 23:26 -23.63723 -47.68252 27928 ft 516 kts 40°
2026-04-25 23:27 -23.61135 -47.65531 27495 ft 520 kts 40°
2026-04-25 23:27 -23.58515 -47.62781 27035 ft 524 kts 40°
2026-04-25 23:27 -23.55898 -47.60033 26537 ft 520 kts 40°
2026-04-25 23:27 -23.53307 -47.57312 25676 ft 516 kts 41°
2026-04-25 23:28 -23.50722 -47.54601 24658 ft 516 kts 41°
2026-04-25 23:28 -23.48118 -47.51873 24026 ft 523 kts 41°
2026-04-25 23:28 -23.45501 -47.49133 23745 ft 517 kts 41°
2026-04-25 23:28 -23.42959 -47.46467 23570 ft 498 kts 41°
2026-04-25 23:29 -23.40514 -47.43902 23344 ft 478 kts 41°
2026-04-25 23:29 -23.38173 -47.41449 23123 ft 457 kts 41°
2026-04-25 23:29 -23.35960 -47.39132 22922 ft 438 kts 41°
2026-04-25 23:29 -23.33806 -47.36878 22736 ft 420 kts 41°
2026-04-25 23:30 -23.31743 -47.34721 22575 ft 404 kts 41°
2026-04-25 23:30 -23.29757 -47.32646 22440 ft 388 kts 40°
2026-04-25 23:30 -23.27848 -47.30653 22312 ft 374 kts 40°
2026-04-25 23:30 -23.26003 -47.28728 22193 ft 360 kts 40°
2026-04-25 23:31 -23.24222 -47.26870 21957 ft 352 kts 40°
2026-04-25 23:31 -23.22463 -47.25038 21555 ft 349 kts 40°
2026-04-25 23:31 -23.20716 -47.23220 21157 ft 347 kts 40°
2026-04-25 23:31 -23.18978 -47.21411 20780 ft 344 kts 40°
2026-04-25 23:32 -23.17256 -47.19618 20398 ft 342 kts 40°
2026-04-25 23:32 -23.15550 -47.17841 20146 ft 337 kts 40°
2026-04-25 23:32 -23.13880 -47.16041 19930 ft 341 kts 44°
2026-04-25 23:32 -23.12276 -47.14143 19724 ft 340 kts 44°
2026-04-25 23:33 -23.10683 -47.12261 19521 ft 337 kts 44°
2026-04-25 23:33 -23.09097 -47.10388 19307 ft 336 kts 44°
2026-04-25 23:33 -23.07519 -47.08527 19126 ft 334 kts 44°
2026-04-25 23:33 -23.05948 -47.06676 19064 ft 333 kts 44°
2026-04-25 23:34 -23.04372 -47.04822 18995 ft 334 kts 44°
2026-04-25 23:34 -23.02815 -47.02947 18928 ft 336 kts 50°
2026-04-25 23:34 -23.01758 -47.00695 18810 ft 336 kts 73°
2026-04-25 23:34 -23.01561 -46.98251 18698 ft 328 kts 97°
2026-04-25 23:35 -23.02228 -46.95889 18381 ft 322 kts 122°
2026-04-25 23:35 -23.03567 -46.94023 17990 ft 316 kts 137°
2026-04-25 23:35 -23.05039 -46.92268 17646 ft 314 kts 133°
2026-04-25 23:35 -23.06332 -46.90369 17293 ft 312 kts 125°
2026-04-25 23:36 -23.07420 -46.88336 16955 ft 310 kts 120°
2026-04-25 23:36 -23.08365 -46.86241 16615 ft 308 kts 117°
2026-04-25 23:36 -23.09234 -46.84129 16280 ft 305 kts 115°
2026-04-25 23:36 -23.10071 -46.82023 15955 ft 302 kts 115°
2026-04-25 23:37 -23.10895 -46.79938 15629 ft 299 kts 115°
2026-04-25 23:37 -23.11715 -46.77870 15310 ft 296 kts 115°
2026-04-25 23:37 -23.12528 -46.75824 14991 ft 294 kts 115°
2026-04-25 23:37 -23.13336 -46.73800 14682 ft 291 kts 115°
2026-04-25 23:38 -23.14136 -46.71796 14370 ft 288 kts 115°
2026-04-25 23:38 -23.14929 -46.69812 14064 ft 285 kts 115°
2026-04-25 23:38 -23.15713 -46.67849 13749 ft 282 kts 115°
2026-04-25 23:38 -23.16493 -46.65897 13385 ft 281 kts 115°
2026-04-25 23:39 -23.17264 -46.63965 13138 ft 274 kts 115°
2026-04-25 23:39 -23.17995 -46.62127 12972 ft 257 kts 115°
2026-04-25 23:39 -23.18694 -46.60371 12584 ft 251 kts 115°
2026-04-25 23:39 -23.19389 -46.58635 12035 ft 250 kts 117°
2026-04-25 23:40 -23.20426 -46.57173 11527 ft 243 kts 146°
2026-04-25 23:40 -23.21948 -46.56495 11012 ft 236 kts 177°
2026-04-25 23:40 -23.23525 -46.56770 10518 ft 230 kts 208°
2026-04-25 23:40 -23.24847 -46.57718 10045 ft 227 kts 217°
2026-04-25 23:41 -23.26153 -46.58707 9507 ft 228 kts 216°
2026-04-25 23:41 -23.27448 -46.59659 9341 ft 227 kts 215°
2026-04-25 23:41 -23.28765 -46.60608 9206 ft 226 kts 215°
2026-04-25 23:41 -23.30079 -46.61543 9097 ft 226 kts 214°
2026-04-25 23:42 -23.31399 -46.62479 9050 ft 226 kts 214°
2026-04-25 23:42 -23.32713 -46.63409 9016 ft 224 kts 214°
2026-04-25 23:42 -23.34015 -46.64333 8785 ft 223 kts 214°
2026-04-25 23:42 -23.35316 -46.65255 8433 ft 223 kts 215°
2026-04-25 23:43 -23.36618 -46.66180 7980 ft 227 kts 215°
2026-04-25 23:43 -23.37974 -46.67143 7317 ft 239 kts 215°
2026-04-25 23:43 -23.39394 -46.68154 6647 ft 247 kts 215°
2026-04-25 23:43 -23.40828 -46.69095 6348 ft 234 kts 203°
2026-04-25 23:44 -23.42358 -46.69301 6157 ft 224 kts 172°
2026-04-25 23:44 -23.43755 -46.68608 6075 ft 216 kts 141°
2026-04-25 23:44 -23.44650 -46.67385 5906 ft 203 kts 126°
2026-04-25 23:44 -23.45451 -46.66103 5482 ft 203 kts 126°
2026-04-25 23:45 -23.46216 -46.64875 5222 ft 195 kts 126°
2026-04-25 23:45 -23.46974 -46.63643 4874 ft 194 kts 121°
2026-04-25 23:45 -23.47236 -46.62250 4621 ft 188 kts 81°
2026-04-25 23:45 -23.46937 -46.60901 4400 ft 182 kts 72°
2026-04-25 23:46 -23.46551 -46.59601 4120 ft 180 kts 70°
2026-04-25 23:46 -23.46165 -46.58337 4051 ft 173 kts 71°
2026-04-25 23:46 -23.45806 -46.57113 4029 ft 163 kts 72°
2026-04-25 23:46 -23.45488 -46.55983 3880 ft 152 kts 72°
2026-04-25 23:47 -23.45188 -46.54886 3619 ft 147 kts 73°
2026-04-25 23:47 -23.44899 -46.53813 3376 ft 142 kts 73°
2026-04-25 23:47 -23.44640 -46.52809 3299 ft 138 kts 74°
2026-04-25 23:47 -23.44391 -46.51811 3174 ft 134 kts 74°
2026-04-25 23:48 -23.44134 -46.50825 2991 ft 137 kts 72°
2026-04-25 23:48 -23.43851 -46.49863 2840 ft 133 kts 72°
2026-04-25 23:48 -23.43596 -46.48921 2635 ft 128 kts 72°
2026-04-25 23:48 -23.43347 -46.48021 2481 ft 118 kts 72°
2026-04-25 23:49 -23.43132 -46.47230 2454 ft 96 kts 73°
2026-04-25 23:49 -23.42991 -46.46715 2459 ft 48 kts 74°
2026-04-25 23:49 -23.42915 -46.46435 2456 ft 38 kts 73°
2026-04-25 23:49 -23.42859 -46.46235 2452 ft 0 kts 69°
2026-04-25 23:50 -23.42805 -46.46180 2453 ft 10 kts 12°
2026-04-25 23:50 -23.42788 -46.46184 2460 ft 3 kts 330°
2026-04-25 23:50 -23.42722 -46.46213 2455 ft 16 kts 332°
2026-04-25 23:50 -23.42710 -46.46313 2461 ft 10 kts 255°
2026-04-25 23:51 -23.42711 -46.46317 2460 ft 0 kts 255°
2026-04-25 23:52 -23.42721 -46.46358 2452 ft 12 kts 255°
2026-04-25 23:53 -23.42754 -46.46483 2457 ft 20 kts 253°
2026-04-25 23:53 -23.42769 -46.46537 2459 ft 9 kts 253°
2026-04-25 23:53 -23.42792 -46.46620 2453 ft 14 kts 253°
2026-04-25 23:53 -23.42826 -46.46740 2456 ft 19 kts 253°
2026-04-25 23:54 -23.42868 -46.46895 2456 ft 24 kts 253°
2026-04-25 23:54 -23.42913 -46.47060 2458 ft 20 kts 253°
2026-04-25 23:54 -23.42947 -46.47191 2459 ft 15 kts 253°
2026-04-25 23:54 -23.42970 -46.47276 2459 ft 3 kts 253°
2026-04-25 23:55 -23.42981 -46.47318 2461 ft 9 kts 253°
2026-04-25 23:55 -23.43002 -46.47396 2456 ft 11 kts 254°
2026-04-25 23:55 -23.42958 -46.47459 2456 ft 14 kts 340°
2026-04-25 23:55 -23.42902 -46.47479 2458 ft 6 kts 342°
2026-04-25 23:56 -23.42893 -46.47482 2458 ft 0 kts 341°
2026-04-25 23:56 -23.42890 -46.47483 2458 ft 2 kts 341°
2026-04-25 23:57 -23.42855 -46.47496 2455 ft 8 kts 340°
2026-04-25 23:57 -23.42794 -46.47521 2462 ft 1 kts 340°
2026-04-25 23:57 -23.42774 -46.47528 2459 ft 6 kts 342°
2026-04-25 23:57 -23.42758 -46.47556 2454 ft 5 kts 273°
2026-04-25 23:58 -23.42766 -46.47607 2458 ft 1 kts 252°
2026-04-25 23:58 -23.42774 -46.47633 2454 ft 5 kts 252°
2026-04-25 23:58 -23.42777 -46.47645 2454 ft 0 kts 252°
2026-04-26 00:27 -23.42775 -46.47637 2454 ft 2 kts 252°
2026-04-26 00:28 -23.42771 -46.47623 2459 ft 2 kts 252°
2026-04-26 00:28 -23.42767 -46.47610 2456 ft 2 kts 252°
2026-04-26 00:28 -23.42763 -46.47597 2460 ft 2 kts 252°
2026-04-26 00:28 -23.42759 -46.47584 2456 ft 2 kts 238°
2026-04-26 00:29 -23.42751 -46.47572 2458 ft 2 kts 224°
2026-04-26 00:29 -23.42741 -46.47564 2463 ft 2 kts 191°
2026-04-26 00:29 -23.42728 -46.47564 2456 ft 2 kts 163°
2026-04-26 00:29 -23.42726 -46.47565 2455 ft 0 kts 163°
2026-04-26 00:36 -23.42727 -46.47564 2455 ft 2 kts 163°
2026-04-26 00:37 -23.42763 -46.47553 2456 ft 9 kts 163°
2026-04-26 00:37 -23.42833 -46.47514 2454 ft 13 kts 134°
2026-04-26 00:37 -23.42926 -46.47470 2462 ft 14 kts 160°
2026-04-26 00:37 -23.42946 -46.47464 2460 ft 4 kts 174°
2026-04-26 00:38 -23.42948 -46.47472 2461 ft 1 kts 255°
2026-04-26 00:38 -23.42948 -46.47479 2459 ft 4 kts 271°
2026-04-26 00:38 -23.42955 -46.47536 2455 ft 11 kts 256°
2026-04-26 00:38 -23.42982 -46.47636 2462 ft 16 kts 252°
2026-04-26 00:39 -23.43020 -46.47772 2456 ft 21 kts 254°
2026-04-26 00:39 -23.43064 -46.47939 2456 ft 25 kts 254°
2026-04-26 00:39 -23.43113 -46.48123 2458 ft 18 kts 253°
2026-04-26 00:39 -23.43152 -46.48270 2455 ft 20 kts 253°
2026-04-26 00:40 -23.43170 -46.48336 2462 ft 5 kts 253°
2026-04-26 00:40 -23.43176 -46.48358 2460 ft 0 kts 253°
2026-04-26 00:40 -23.43178 -46.48368 2459 ft 6 kts 251°
2026-04-26 00:41 -23.43229 -46.48394 2463 ft 7 kts 154°
2026-04-26 00:41 -23.43289 -46.48369 2460 ft 0 kts 165°
2026-04-26 00:42 -23.43300 -46.48366 2459 ft 5 kts 165°
2026-04-26 00:42 -23.43359 -46.48349 2461 ft 12 kts 163°
2026-04-26 00:42 -23.43420 -46.48328 2461 ft 1 kts 162°
2026-04-26 00:42 -23.43425 -46.48316 2456 ft 1 kts 88°
2026-04-26 00:43 -23.43424 -46.48315 2456 ft 0 kts 74°
2026-04-26 00:43 -23.43423 -46.48309 2456 ft 7 kts 74°
2026-04-26 00:43 -23.43314 -46.47903 2459 ft 103 kts 73°
2026-04-26 00:43 -23.43046 -46.46894 2474 ft 168 kts 73°
2026-04-26 00:44 -23.42703 -46.45642 3149 ft 175 kts 72°
2026-04-26 00:44 -23.42350 -46.44359 3981 ft 179 kts 72°
2026-04-26 00:44 -23.41967 -46.43031 4644 ft 192 kts 71°
2026-04-26 00:44 -23.41533 -46.41572 5105 ft 213 kts 71°
2026-04-26 00:45 -23.41049 -46.39948 5441 ft 241 kts 71°
2026-04-26 00:45 -23.40697 -46.38760 5800 ft 257 kts 71°
2026-04-26 00:45 -23.40189 -46.36077 6564 ft 286 kts 92°
2026-04-26 00:45 -23.40658 -46.33961 7335 ft 291 kts 111°
2026-04-26 00:46 -23.41349 -46.31909 8201 ft 293 kts 111°
2026-04-26 00:46 -23.42052 -46.29815 9026 ft 297 kts 111°
2026-04-26 00:46 -23.42766 -46.27661 9823 ft 300 kts 111°
2026-04-26 00:46 -23.43465 -46.25535 10359 ft 308 kts 111°
2026-04-26 00:47 -23.44058 -46.23211 10527 ft 329 kts 102°
2026-04-26 00:47 -23.44484 -46.20713 10830 ft 340 kts 101°
2026-04-26 00:47 -23.44917 -46.18169 11295 ft 344 kts 101°
2026-04-26 00:47 -23.45357 -46.15602 11803 ft 345 kts 102°
2026-04-26 00:48 -23.45797 -46.13050 12458 ft 340 kts 102°
2026-04-26 00:48 -23.46240 -46.10492 12779 ft 350 kts 102°
2026-04-26 00:48 -23.46700 -46.07841 12902 ft 362 kts 102°
2026-04-26 00:48 -23.47171 -46.05125 13206 ft 367 kts 101°
2026-04-26 00:49 -23.47645 -46.02383 13593 ft 370 kts 101°
2026-04-26 00:49 -23.48122 -45.99620 13947 ft 372 kts 101°
2026-04-26 00:49 -23.48602 -45.96836 14258 ft 375 kts 101°
2026-04-26 00:49 -23.48883 -45.93999 14533 ft 379 kts 91°
2026-04-26 00:50 -23.48670 -45.91134 14788 ft 381 kts 80°
2026-04-26 00:50 -23.48029 -45.88320 14968 ft 384 kts 74°
2026-04-26 00:50 -23.47330 -45.85512 15146 ft 385 kts 74°
2026-04-26 00:50 -23.46632 -45.82686 15307 ft 387 kts 75°
2026-04-26 00:51 -23.45936 -45.79851 15465 ft 388 kts 75°
2026-04-26 00:51 -23.45242 -45.77019 15823 ft 382 kts 75°
2026-04-26 00:51 -23.44574 -45.74290 16566 ft 365 kts 74°
2026-04-26 00:51 -23.43930 -45.71662 17177 ft 356 kts 74°
2026-04-26 00:52 -23.43290 -45.69056 17433 ft 358 kts 74°
2026-04-26 00:52 -23.42645 -45.66432 17667 ft 360 kts 74°
2026-04-26 00:52 -23.41995 -45.63789 17882 ft 363 kts 73°
2026-04-26 00:52 -23.41340 -45.61130 18118 ft 364 kts 73°
2026-04-26 00:53 -23.40682 -45.58460 18331 ft 367 kts 73°
2026-04-26 00:53 -23.40021 -45.55776 18520 ft 368 kts 73°
2026-04-26 00:53 -23.39356 -45.53083 18721 ft 369 kts 73°
2026-04-26 00:53 -23.38691 -45.50380 18904 ft 370 kts 74°
2026-04-26 00:54 -23.38083 -45.47651 19092 ft 371 kts 76°
2026-04-26 00:54 -23.37513 -45.44909 19267 ft 373 kts 76°
2026-04-26 00:54 -23.36951 -45.42188 19435 ft 374 kts 76°
2026-04-26 00:54 -23.36374 -45.39423 19599 ft 375 kts 76°
2026-04-26 00:55 -23.35790 -45.36660 19801 ft 375 kts 76°
2026-04-26 00:55 -23.35202 -45.33893 19953 ft 377 kts 76°
2026-04-26 00:55 -23.34606 -45.31110 20112 ft 378 kts 76°
2026-04-26 00:55 -23.34009 -45.28327 20271 ft 378 kts 76°
2026-04-26 00:56 -23.33410 -45.25532 20438 ft 379 kts 76°
2026-04-26 00:56 -23.32811 -45.22747 20565 ft 380 kts 76°
2026-04-26 00:56 -23.32208 -45.19937 20676 ft 381 kts 76°
2026-04-26 00:56 -23.31602 -45.17123 20829 ft 382 kts 76°
2026-04-26 00:57 -23.30997 -45.14309 20966 ft 382 kts 76°
2026-04-26 00:57 -23.30389 -45.11486 21078 ft 384 kts 76°
2026-04-26 00:57 -23.29779 -45.08659 21216 ft 384 kts 76°
2026-04-26 00:57 -23.29167 -45.05825 21341 ft 385 kts 76°
2026-04-26 00:58 -23.28554 -45.02987 21453 ft 386 kts 76°
2026-04-26 00:58 -23.28146 -45.01104 21545 ft 386 kts 76°
2026-04-26 00:58 -23.27530 -44.98259 21615 ft 387 kts 76°
2026-04-26 00:58 -23.26912 -44.95413 21711 ft 388 kts 76°
2026-04-26 00:59 -23.26084 -44.91593 21615 ft 387 kts 76°
2026-04-26 00:59 -23.25675 -44.89713 21566 ft 386 kts 76°
2026-04-26 00:59 -23.25050 -44.86842 21462 ft 394 kts 76°
2026-04-26 00:59 -23.24414 -44.83922 21365 ft 400 kts 76°
2026-04-26 01:00 -23.23768 -44.80956 21262 ft 406 kts 76°
2026-04-26 01:00 -23.23115 -44.77955 21166 ft 410 kts 76°
2026-04-26 01:00 -23.22454 -44.74922 21066 ft 415 kts 76°
2026-04-26 01:00 -23.21785 -44.71857 20966 ft 418 kts 76°
2026-04-26 01:01 -23.21110 -44.68769 20877 ft 421 kts 76°
2026-04-26 01:01 -23.20430 -44.65659 20785 ft 424 kts 76°
2026-04-26 01:01 -23.19748 -44.62541 20683 ft 427 kts 76°
2026-04-26 01:01 -23.19056 -44.59383 20583 ft 429 kts 76°
2026-04-26 01:02 -23.18319 -44.56238 20486 ft 430 kts 72°
2026-04-26 01:02 -23.17249 -44.53204 20389 ft 431 kts 64°
2026-04-26 01:02 -23.16076 -44.50209 20296 ft 433 kts 71°
2026-04-26 01:02 -23.15110 -44.47110 20205 ft 433 kts 69°
2026-04-26 01:03 -23.13997 -44.44064 20108 ft 434 kts 66°
2026-04-26 01:03 -23.12846 -44.41030 20019 ft 435 kts 66°
2026-04-26 01:03 -23.11691 -44.37991 19923 ft 436 kts 66°
2026-04-26 01:03 -23.10533 -44.34945 19829 ft 436 kts 66°
2026-04-26 01:04 -23.09525 -44.31837 19737 ft 438 kts 75°
2026-04-26 01:04 -23.08699 -44.28662 19645 ft 437 kts 70°
2026-04-26 01:04 -23.07676 -44.25545 19561 ft 438 kts 69°
2026-04-26 01:04 -23.06571 -44.22469 19464 ft 438 kts 66°
2026-04-26 01:05 -23.05369 -44.19435 19372 ft 438 kts 64°
2026-04-26 01:05 -23.04101 -44.16425 19283 ft 438 kts 64°
2026-04-26 01:05 -23.02803 -44.13437 18994 ft 436 kts 63°
2026-04-26 01:05 -23.01496 -44.10463 18244 ft 438 kts 63°
2026-04-26 01:06 -23.00831 -44.08955 17694 ft 440 kts 63°